sat.trackr.live / text

‹ back to catalog

KUIPER-00050

NORAD 64510 · 2025-134L

PAYLOAD ACTIVE UNKNOWN

§ Identity

Operator
Country
US
Launch date
2025-06-23
Launch site
AFETR
Launch vehicle
Mass (kg)
RCS (m²)

External: N2YO · Heavens-Above · Gunter

§ Orbital elements

Epoch: 2026-05-25T04:47:27.354624Z

Period
97.30 min
Inclination
51.8970°
Eccentricity
0.0000396
Mean motion
14.79933931 rev/d
Perigee alt
629.3 km
Apogee alt
629.8 km
Semi-major
7,007.7 km
B*
1.2324e-4
RAAN
232.2301°
Arg perigee
67.8670°
Mean anomaly
292.2334°
Rev number
5,172

§ Raw data

KUIPER-000501 64510U 25134L   26145.19962216  .00000719  00000+0  12324-3 0  99962 64510  51.8970 232.2301 0000396  67.8670 292.2334 14.79933931 51722

JSON: /api/v1/satellites/64510 · /tle

For live sub-satellite position, see the globe view (requires WebGL).

§ Visibility from observer

Set your observer location to see the next 7 days of passes ≥ 10°. The values pass through the URL so the page stays shareable.

No JS? Fill the form by hand. The geolocation button needs JavaScript.